Weather in Krymno

Ukraine / Volyn Oblast     51°39′44″N   25°10′33″E
temp.,
°C
wind,
m/s
gust,
m/s
humid.,
%
clouds,
%
prec.,
mm/h
press.,
hPa
HPBL,
m
25 february, thu
thu2523:00+4wsw3799100 0.0 1032102
02:00+4wsw3699100 0.0 1031108
05:00+4w3699100 0.0 1030107
08:00+4w3499100 0.0 103087
11:00+5wsw3497100 0.0 1030175
14:00+9wsw358975 0.0 1030274
17:00+8sw34931 0.0 102855
20:00+5sw34911 0.0 102867
26 february, fri
fri2623:00+5sw48900 0.0 1026131
02:00+4wsw410880 0.0 1025167
05:00+4wsw410910 0.0 1024182
08:00+4w49940 0.0 1024205
11:00+8wnw6109049 0.0 1023465
14:00+10wnw7107973 0.0 1023771
17:00+8w51173100 0.0 1021737
20:00+6w51374100 0.0 1021739
27 february, sat
sat2723:00+4w6148097 0.0 1020611
02:00+3wnw7148380 0.0 1020756
05:00+4wnw71478100 0.0 1019815
08:00+4wnw81483100 0.0 10191060
11:00+5nw9146896 0.1 10191468
14:00+6nw9136093 0.1 10211643
17:00+6nnw71263100 0.0 10211316
20:00+4nnw61169100 0.1 10231041
28 february, sun
sun2823:00+3nnw6117395 0.1 10251089
02:00+1nnw597795 0.1 1027585
05:00−1nw410880 0.0 1028412
08:00−1nw598522 0.0 1029534
11:00+2nw5872100 0.0 1029781
14:00+3nw5864100 0.0 1030900
17:00+3nw496387 0.0 1029580
20:00+1nw487684 0.0 1030198
1 march, mon
mon123:000nw388681 0.0 1031169
02:00+1nw499687 0.1 1031331
05:00+1wnw3798100 1.8 1031317
08:00+1nnw3698100 2.1 1031299
11:00+3n3594100 0.0 1033355
14:00+4n228299 0.1 1034464
17:00+4nw237966 0.1 1035155
20:00+2nnw118080 0.1 103622